Naha Airport

Airport
ICAO code: 
ROAH
IATA Code: 
OKA
Summary
ICAO Region: 
APAC
Territory: 
Location: 
Naha, Okinawa Prefecture
Serving: 
Naha
Elevation: 
11 ft
Coordinates: 
Aerial View: 
26° 12' 23.616" N, 127° 39' 2.441" E
Airport WX: 
Tropical Revolving Storm
Metar
Observation
ROAH 180930Z 05011KT 9999 -RA FEW035 BKN060 17/09 Q1020 RMK 2CU035 7AS060 A3014
Station
Naha Airport
Date/Time
2022-01-18 09:30:00
Wind direction
50°
Wind speed
11 kts
Lowest cloud amount
few clouds
Temperature
17°C
Dew point
9°C
Humidity
59%
QNH
1020 hPa
Weather condition
light rain

Naha Airport is located on the Island of Okinawa 4 km west of the centre of Naha. The airport is a joint civil and military base. The airport is in close proximity to the USAF base at Kadena and the USMC base at Futenma. The extended centrelines of both of these airfields intersect the approach to RWY 18 at Naha and this restricts and influences the types of approach available.

Climatology

Humid Sub-tropical climate (Köppen climate classification Cfa)

Occasional Typhoons coming from South China Sea.

Runways

Designator Length Width Surface Rops
18/36 2999 46 ASP Yes/Yes
Airport map: 
Aerial View: 

SKYbrary Partners:

Safety knowledge contributed by: